Location: Dumpton Point
(51.3500°N, 1.4433°E)
Time: 16:28:42
(UTC+00:00)

Vanguard 1 - All Passes

Search period start: 24 September 2022 00:00
Search period end: 04 October 2022 00:00
Orbit: 649 x 3832 km, 34.2° (Epoch: 22 September)

Date Brightness Start Highest point End Pass type
(mag) Time Alt. Az. Time Alt. Az. Time Alt. Az.
24 Sep - 15:30:02 10° SSW 15:34:11 13° SSE 15:37:34 10° SE daylight
24 Sep - 17:49:38 10° SW 17:53:47 16° S 17:57:04 10° SSE daylight
25 Sep - 15:49:01 10° SSW 15:54:38 16° S 15:58:52 10° SE daylight
25 Sep - 18:09:58 10° SW 18:14:05 16° S 18:17:21 10° SSE visible
26 Sep - 13:51:08 10° S 13:54:46 12° SSE 13:57:54 10° SE daylight
26 Sep - 16:08:38 10° SW 16:15:04 19° S 16:19:41 10° SE daylight
26 Sep - 18:30:33 10° SW 18:34:20 15° SSW 18:37:24 10° SSE visible
27 Sep - 14:08:41 10° SSW 14:15:17 16° SSE 14:20:18 10° SE daylight
27 Sep - 16:28:38 10° SW 16:35:28 21° S 16:40:16 10° SE daylight
27 Sep - 18:51:25 10° SW 18:54:32 14° SSW 18:57:10 10° S visible
28 Sep - 14:27:31 10° SSW 14:35:46 19° SSE 14:41:37 10° SE daylight
28 Sep - 16:48:53 10° SW 16:55:49 22° S 17:00:39 10° SE daylight
28 Sep - 19:12:52 10° SW 19:14:40 11° SSW 19:16:19 10° S visible
29 Sep - 12:29:54 10° S 12:35:20 13° SSE 12:39:53 10° SE daylight
29 Sep - 14:46:58 10° SW 14:56:15 22° S 15:02:31 10° ESE daylight
29 Sep - 17:09:20 10° WSW 17:16:09 22° SSW 17:20:53 10° SE daylight
30 Sep - 12:47:05 10° S 12:55:50 17° SSE 13:02:26 10° ESE daylight
30 Sep - 15:06:49 10° SW 15:16:43 25° S 15:23:09 10° SE daylight
30 Sep - 17:29:59 10° WSW 17:36:23 20° SSW 17:40:56 10° SSE daylight
01 Oct - 13:05:34 10° SSW 13:16:20 21° SSE 13:23:54 10° ESE daylight
01 Oct - 15:26:58 10° SW 15:37:08 27° S 15:43:38 10° SE daylight
01 Oct - 17:50:49 10° WSW 17:56:34 18° SSW 18:00:47 10° SSE daylight
02 Oct - 11:09:18 10° SSE 11:15:22 12° SE 11:20:37 10° SE daylight
02 Oct - 13:24:45 10° SSW 13:36:51 25° SSE 13:44:55 10° ESE daylight
02 Oct - 15:47:21 10° WSW 15:57:31 28° S 16:03:58 10° SE daylight
02 Oct - 18:11:55 10° WSW 18:16:40 16° SSW 18:20:21 10° S visible
03 Oct - 11:25:36 10° S 11:35:49 17° SSE 11:43:45 10° ESE daylight
03 Oct - 13:44:23 10° SW 13:57:21 28° S 14:05:40 10° ESE daylight
03 Oct - 16:07:54 10° WSW 16:17:51 28° SSW 16:24:11 10° SE daylight
03 Oct - 18:33:32 10° WSW 18:36:41 12° SW 18:39:20 10° SSW visible
